• în România
  • Lista ţărilor
  • Pe 7 zile
  • Temperatura apei
  • Hartă satelitară
  • Meteo pe hartă
  • Widget-uri
  • user-avatar
    Intrare

    Meteo pe oră la Elbasan

    Astăzi, 21 Noiembrie, Marţi

    Timp Temperatura Precipitaţii Vânt Presiune Umiditate
    00:00 +5°C° 0 mm 1 m/s 738 mmHg 64%
    01:00 +5°C° 0 mm 1 m/s 738 mmHg 63%
    02:00 +4°C° 0 mm 1 m/s 738 mmHg 61%
    03:00 +4°C° 0 mm 1 m/s 738 mmHg 60%
    04:00 +4°C° 0 mm 1 m/s 738 mmHg 58%
    05:00 +5°C° 0 mm 1 m/s 738 mmHg 57%
    06:00 +5°C° 0 mm 1 m/s 739 mmHg 55%
    07:00 +5°C° 0 mm 1 m/s 739 mmHg 54%
    08:00 +7°C° 0 mm 1 m/s 739 mmHg 49%
    09:00 +9°C° 0 mm 1 m/s 739 mmHg 44%
    10:00 +10°C° 0 mm 1 m/s 739 mmHg 39%
    11:00 +11°C° 0 mm 1 m/s 739 mmHg 38%
    12:00 +12°C° 0 mm 2 m/s 738 mmHg 38%
    13:00 +12°C° 0 mm 2 m/s 738 mmHg 38%
    14:00 +11°C° 0 mm 1 m/s 738 mmHg 43%
    15:00 +10°C° 0 mm 1 m/s 738 mmHg 49%
    16:00 +9°C° 0 mm 1 m/s 738 mmHg 55%
    17:00 +8°C° 0 mm 1 m/s 738 mmHg 56%
    18:00 +7°C° 0 mm 1 m/s 739 mmHg 57%
    19:00 +7°C° 0 mm 1 m/s 739 mmHg 59%
    20:00 +7°C° 0 mm 1 m/s 739 mmHg 59%
    21:00 +7°C° 0 mm 1 m/s 739 mmHg 58%
    22:00 +6°C° 0 mm 1 m/s 739 mmHg 58%
    23:00 +6°C° 0 mm 1 m/s 739 mmHg 59%

    Mâine, 22 Noiembrie, Miercuri

    Timp Temperatura Precipitaţii Vânt Presiune Umiditate
    00:00 +6°C° 0 mm 1 m/s 739 mmHg 60%
    01:00 +6°C° 0 mm 1 m/s 739 mmHg 60%
    02:00 +6°C° 0 mm 1 m/s 739 mmHg 61%
    03:00 +6°C° 0 mm 1 m/s 739 mmHg 62%
    04:00 +7°C° 0 mm 1 m/s 739 mmHg 64%
    05:00 +7°C° 0 mm 1 m/s 739 mmHg 64%
    06:00 +7°C° 0 mm 1 m/s 739 mmHg 65%
    07:00 +7°C° 0 mm 1 m/s 739 mmHg 66%
    08:00 +9°C° 0 mm 1 m/s 739 mmHg 62%
    09:00 +11°C° 0 mm 1 m/s 739 mmHg 57%
    10:00 +13°C° 0 mm 1 m/s 739 mmHg 53%
    11:00 +14°C° 0 mm 1 m/s 739 mmHg 53%
    12:00 +14°C° 0 mm 1 m/s 739 mmHg 52%
    13:00 +15°C° 0 mm 1 m/s 739 mmHg 52%
    14:00 +14°C° 0 mm 1 m/s 739 mmHg 58%
    15:00 +12°C° 0 mm 1 m/s 738 mmHg 64%
    16:00 +11°C° 0 mm 1 m/s 738 mmHg 71%
    17:00 +10°C° 0 mm 1 m/s 738 mmHg 72%
    18:00 +10°C° 0 mm 1 m/s 739 mmHg 74%
    19:00 +9°C° 0 mm 1 m/s 739 mmHg 76%
    20:00 +9°C° 0 mm 1 m/s 739 mmHg 75%
    21:00 +9°C° 0 mm 1 m/s 739 mmHg 74%
    22:00 +9°C° 0 mm 1 m/s 739 mmHg 73%
    23:00 +9°C° 0 mm 1 m/s 739 mmHg 72%

    Poimâine, 23 Noiembrie, Joi

    Timp Temperatura Precipitaţii Vânt Presiune Umiditate
    00:00 +9°C° 0 mm 1 m/s 739 mmHg 71%
    01:00 +8°C° 0 mm 1 m/s 739 mmHg 69%
    02:00 +8°C° 0 mm 1 m/s 739 mmHg 68%
    03:00 +8°C° 0 mm 1 m/s 739 mmHg 68%
    04:00 +8°C° 0 mm 1 m/s 738 mmHg 67%
    05:00 +8°C° 0 mm 1 m/s 739 mmHg 66%
    06:00 +8°C° 0 mm 1 m/s 739 mmHg 65%
    07:00 +8°C° 0 mm 1 m/s 739 mmHg 64%
    08:00 +11°C° 0 mm 1 m/s 739 mmHg 58%
    09:00 +13°C° 0 mm 1 m/s 739 mmHg 52%
    10:00 +15°C° 0 mm 1 m/s 739 mmHg 46%
    11:00 +16°C° 0 mm 1 m/s 739 mmHg 45%
    12:00 +16°C° 0 mm 1 m/s 739 mmHg 45%
    13:00 +18°C° 0 mm 1 m/s 739 mmHg 45%
    14:00 +15°C° 0 mm 1 m/s 739 mmHg 52%
    15:00 +14°C° 0 mm 1 m/s 739 mmHg 58%
    16:00 +13°C° 0 mm 1 m/s 739 mmHg 65%
    17:00 +12°C° 0 mm 1 m/s 739 mmHg 68%
    18:00 +11°C° 0 mm 1 m/s 739 mmHg 70%
    19:00 +10°C° 0 mm 1 m/s 740 mmHg 73%
    20:00 +10°C° 0 mm 1 m/s 740 mmHg 71%
    21:00 +10°C° 0 mm 1 m/s 740 mmHg 70%
    22:00 +10°C° 0 mm 1 m/s 740 mmHg 69%
    23:00 +10°C° 0 mm 1 m/s 740 mmHg 68%

    24 Noiembrie, Vineri

    Timp Temperatura Precipitaţii Vânt Presiune Umiditate
    00:00 +9°C° 0 mm 1 m/s 740 mmHg 67%
    01:00 +9°C° 0 mm 1 m/s 740 mmHg 66%
    02:00 +9°C° 0 mm 1 m/s 740 mmHg 65%
    03:00 +9°C° 0 mm 1 m/s 740 mmHg 65%
    04:00 +9°C° 0 mm 1 m/s 740 mmHg 65%
    05:00 +9°C° 0 mm 1 m/s 740 mmHg 65%
    06:00 +9°C° 0 mm 1 m/s 740 mmHg 65%
    07:00 +9°C° 0 mm 1 m/s 740 mmHg 65%
    08:00 +10°C° 0 mm 0 m/s 740 mmHg 60%
    09:00 +12°C° 0 mm 0 m/s 740 mmHg 55%
    10:00 +14°C° 0 mm 0 m/s 740 mmHg 50%
    11:00 +16°C° 0 mm 1 m/s 740 mmHg 50%
    12:00 +16°C° 0 mm 1 m/s 740 mmHg 50%
    13:00 +17°C° 0 mm 2 m/s 740 mmHg 50%
    14:00 +15°C° 0 mm 2 m/s 740 mmHg 57%
    15:00 +14°C° 0 mm 1 m/s 740 mmHg 65%
    16:00 +13°C° 0 mm 1 m/s 739 mmHg 73%
    17:00 +12°C° 0 mm 1 m/s 740 mmHg 76%
    18:00 +11°C° 0 mm 1 m/s 740 mmHg 79%
    19:00 +10°C° 0 mm 1 m/s 740 mmHg 83%
    20:00 +10°C° 0 mm 1 m/s 741 mmHg 81%
    21:00 +10°C° 0 mm 1 m/s 741 mmHg 80%
    22:00 +10°C° 0 mm 1 m/s 741 mmHg 79%
    23:00 +10°C° 0 mm 1 m/s 741 mmHg 78%

    25 Noiembrie, Sâmbătă

    Timp Temperatura Precipitaţii Vânt Presiune Umiditate
    00:00 +9°C° 0 mm 1 m/s 741 mmHg 77%
    01:00 +9°C° 0 mm 1 m/s 741 mmHg 75%
    02:00 +9°C° 0 mm 1 m/s 741 mmHg 75%
    03:00 +9°C° 0 mm 1 m/s 741 mmHg 74%
    04:00 +9°C° 0 mm 1 m/s 741 mmHg 73%
    05:00 +9°C° 0 mm 1 m/s 741 mmHg 73%
    06:00 +9°C° 0 mm 1 m/s 741 mmHg 73%
    07:00 +8°C° 0 mm 1 m/s 741 mmHg 73%
    08:00 +11°C° 0 mm 1 m/s 742 mmHg 66%
    09:00 +13°C° 0 mm 1 m/s 742 mmHg 60%
    10:00 +15°C° 0 mm 1 m/s 742 mmHg 54%
    11:00 +15°C° 0 mm 1 m/s 742 mmHg 51%
    12:00 +16°C° 0 mm 1 m/s 742 mmHg 49%
    13:00 +18°C° 0 mm 1 m/s 741 mmHg 47%
    14:00 +15°C° 0 mm 1 m/s 741 mmHg 54%
    15:00 +14°C° 0 mm 1 m/s 741 mmHg 60%
    16:00 +13°C° 0 mm 1 m/s 741 mmHg 67%
    17:00 +12°C° 0 mm 1 m/s 741 mmHg 70%
    18:00 +11°C° 0 mm 1 m/s 742 mmHg 73%
    19:00 +11°C° 0 mm 1 m/s 742 mmHg 75%
    20:00 +10°C° 0 mm 1 m/s 742 mmHg 76%
    21:00 +10°C° 0 mm 1 m/s 742 mmHg 77%
    22:00 +10°C° 0 mm 1 m/s 742 mmHg 77%
    23:00 +10°C° 0 mm 1 m/s 742 mmHg 78%

    26 Noiembrie, Duminică

    Timp Temperatura Precipitaţii Vânt Presiune Umiditate
    00:00 +9°C° 0 mm 1 m/s 742 mmHg 78%
    01:00 +9°C° 0 mm 1 m/s 742 mmHg 78%
    02:00 +9°C° 0 mm 1 m/s 742 mmHg 78%
    03:00 +9°C° 0 mm 1 m/s 742 mmHg 78%
    04:00 +9°C° 0 mm 1 m/s 742 mmHg 78%
    05:00 +9°C° 0 mm 1 m/s 742 mmHg 77%
    06:00 +9°C° 0 mm 1 m/s 742 mmHg 76%
    07:00 +9°C° 0 mm 1 m/s 742 mmHg 75%
    08:00 +11°C° 0 mm 1 m/s 742 mmHg 67%
    09:00 +13°C° 0 mm 1 m/s 742 mmHg 59%
    10:00 +15°C° 0 mm 1 m/s 742 mmHg 51%
    11:00 +15°C° 0 mm 1 m/s 742 mmHg 49%
    12:00 +16°C° 0 mm 1 m/s 742 mmHg 48%
    13:00 +16°C° 0 mm 1 m/s 741 mmHg 46%
    14:00 +15°C° 0 mm 1 m/s 741 mmHg 53%
    15:00 +14°C° 0 mm 1 m/s 741 mmHg 59%
    16:00 +13°C° 0 mm 1 m/s 741 mmHg 66%
    17:00 +12°C° 0 mm 1 m/s 741 mmHg 68%
    18:00 +11°C° 0 mm 1 m/s 741 mmHg 71%
    19:00 +11°C° 0 mm 1 m/s 742 mmHg 74%
    20:00 +11°C° 0 mm 1 m/s 742 mmHg 74%
    21:00 +11°C° 0 mm 1 m/s 742 mmHg 73%
    22:00 +11°C° 0 mm 1 m/s 742 mmHg 73%
    23:00 +11°C° 0 mm 1 m/s 742 mmHg 74%
    Arată mai mult